www.pogodaiklimat.ru

Погода и климат >> Архив погоды >> Филиппины >> Амбулонг


ПОГОДА на Амбулонге

  • Прогноз погоды на Амбулонге
  • Монитор погоды на Амбулонге

АРХИВ ПОГОДЫ на Амбулонге

Время (UTC), дата Ветер
(напр.,м/с)
 
Видим.   Явления Облачность Т
(С)
Тd
(С)
f
(%)
Тe
(С)
Тes
(С)
Комфортность P
(гПа)
Po
(гПа)
Тmin
(С)
Tmax
(С)
R
(мм)
R24
(мм)
S
(см)
18 9.06 СВ 2 18 км мгла {туман} 4/1 600 м
[Cu med, cong Ac As]
+26.9 +26.0 95 +40 +40 очень
душно
1008.6 1007.4
21 9.06 СВ 2 18 км мгла {туман} 4/1 600 м
[Cu med, cong Ac As Ci sp]
+26.0 +24.5 91 +36 +36 очень
душно
1007.2 1006.0
00 10.06 ЮЗ 1 18 км мгла {туман} 8/4 600 м
[Cu med, cong Ac As Ci sp]
+29.8 +26.6 83 +46 +49 опасность
перегрева
1008.2 1007.0 +22.0
03 10.06 ЮЗ 2 18 км мгла {туман} 6/4 600 м
[Cu med, cong Ci sp]
+32.7 +27.0 72 +51 +62 опасность
перегрева
1006.8 1005.6
06 10.06 штиль 0 17 км осадки на расстоянии {гроза, туман} 9/3 540 м
[Sc Ac As]
+28.9 +26.4 86 +44 +50 опасность
перегрева
1006.1 1004.9
09 10.06 СВ 1 17 км мгла {гроза} 9/4 600 м
[Cu med, cong Ac As]
+29.7 +27.0 85 +47 +47 опасность
перегрева
1006.1 1004.9 0.0
12 10.06 СВ 2 18 км мгла {гроза, дождь} 6/4 600 м
[Cu med, cong Ac As]
+26.3 +25.2 94 +38 +38 очень
душно
1006.6 1005.4 +32.8 14
15 10.06 штиль 0 18 км мгла {туман} 5/3 600 м
[Cu med, cong Ac trans]
+26.0 +24.8 93 +37 +37 очень
душно
1008.2 1007.0
18 10.06 штиль 0 18 км мгла {туман} 6/3 600 м
[Cu med, cong Ac As Ci sp]
+25.5 +24.8 96 +36 +36 очень
душно
1007.4 1006.2
21 10.06 штиль 0 18 км мгла {туман} 4/1 600 м
[Cu med, cong Ci sp]
+25.7 +25.0 96 +37 +37 очень
душно
1006.8 1005.6
00 11.06 ЮЗ 1 18 км мгла {туман} 8/3 600 м
[Cu med, cong Ac As Ci sp]
+28.5 +26.4 88 +43 +47 опасность
перегрева
1007.2 1006.0 +21.3 14
03 11.06 ЮЗ 2 18 км мгла {туман} 6/4 600 м
[Cu med, cong Ci sp]
+33.0 +28.0 75 +54 +65 опасность
перегрева
1007.4 1006.2
06 11.06 ЮЗ 2 18 км мгла {туман} 6/4 600 м
[Cu med, cong Ac As]
+33.6 +27.2 69 +52 +60 опасность
перегрева
1005.8 1004.6
09 11.06 ЮЗ 3 18 км мгла {туман} 8/4 600 м
[Cu med, cong Ac As]
+32.2 +26.3 71 +48 +49 опасность
перегрева
1005.9 1004.7
12 11.06 штиль 0 18 км мгла {туман} 4/1 600 м
[Cu med, cong Ac As]
+29.9 +26.0 80 +45 +45 опасность
перегрева
1007.2 1006.0 +35.8
15 11.06 штиль 0 18 км мгла {туман} 5/3 600 м
[Cu med, cong Ac trans]
+27.4 +25.3 88 +40 +40 очень
душно
1008.9 1007.7
18 11.06 штиль 0 18 км мгла {туман} 9/3 600 м
[Cu med, cong Ac As]
+27.5 +25.8 90 +41 +41 опасность
перегрева
1008.6 1007.4 0.0
21 11.06 штиль 0 18 км мгла {туман} 9/4 600 м
[Cu med, cong Ac As]
+27.4 +24.9 86 +39 +39 очень
душно
1007.9 1006.7
00 12.06 СВ 1 18 км мгла {туман} 8/3 600 м
[Cu Sc Ac As]
+28.8 +25.4 82 +42 +45 опасность
перегрева
1008.2 1007.0 +22.8 0.0
03 12.06 ЮЗ 1 18 км мгла {туман} 8/4 600 м
[Cu med, cong Ac As]
+32.3 +25.0 65 +46 +53 опасность
перегрева
1008.2 1007.0
06 12.06 ЮЗ 3 18 км мгла {туман} 6/3 600 м
[Cu med, cong Ac As Ci sp]
+33.7 +27.5 70 +53 +60 опасность
перегрева
1007.2 1006.0
09 12.06 ЮЗ 2 18 км мгла {туман} 6/3 600 м
[Cu med, cong Ac As Ci sp]
+32.1 +26.0 70 +48 +49 опасность
перегрева
1006.2 1005.0
12 12.06 штиль 0 18 км мгла {туман} 6/3 600 м
[Cu med, cong Ac As]
+30.0 +26.8 83 +47 +47 опасность
перегрева
1007.4 1006.2 +35.2
15 12.06 штиль 0 18 км зарница {туман} 6/1 600 м
[Cb calv Ac As]
+28.2 +26.1 88 +42 +42 опасность
перегрева
1008.6 1007.4
18 12.06 штиль 0 18 км мгла {туман} 3/1 600 м
[Cu med, cong Ac lent]
+27.2 +26.0 93 +41 +41 опасность
перегрева
1007.5 1006.3
21 12.06 штиль 0 18 км мгла {туман} 4/1 600 м
[Cu med, cong Ac As]
+26.5 +25.7 95 +39 +39 очень
душно
1006.4 1005.2
00 13.06 штиль 0 18 км мгла {туман} 5/1 450 м
[Cb cap Ac As Ci sp]
+29.9 +26.7 83 +46 +53 опасность
перегрева
1009.2 1008.0 +25.1
03 13.06 ЮЗ 2 18 км мгла {туман} 6/3 600 м
[Cu med, cong Ac As Ci sp]
+34.0 +26.2 64 +50 +62 опасность
перегрева
1009.1 1007.9
06 13.06 ЮЗ 2 16 км осадки на расстоянии {туман} 9/4 600 м
[Cu med, cong Ac As]
+32.2 +26.6 72 +49 +53 опасность
перегрева
1007.5 1006.3
09 13.06 ЮЗ 4 18 км мгла {туман} 4/1 600 м
[Cu med, cong Ac As Ci sp]
+32.5 +25.3 66 +47 +48 опасность
перегрева
1006.4 1005.2
12 13.06 штиль 0 18 км мгла {туман} 3/1 600 м
[Cu med, cong Ci sp]
+29.0 +26.1 84 +44 +44 опасность
перегрева
1008.5 1007.3 +35.1
15 13.06 штиль 0 18 км мгла {туман} 3/1 600 м
[Cu med, cong Ci sp]
+26.7 +25.0 90 +38 +38 очень
душно
1009.3 1008.1
18 13.06 штиль 0 18 км мгла {туман} 6/1 600 м
[Cu med, cong Ac As Ci sp]
+26.0 +25.1 95 +37 +37 очень
душно
1007.4 1006.2
21 13.06 штиль 0 18 км мгла {туман} 5/3 600 м
[Cu med, cong Ac As Ci sp]
+26.1 +25.4 96 +38 +38 очень
душно
1007.3 1006.1
00 14.06 штиль 0 18 км мгла {туман} 5/1 600 м
[Cu med, cong Ac As Ci sp]
+30.0 +28.1 90 +50 +57 опасность
перегрева
1008.7 1007.5 +24.8
03 14.06 ЮЗ 3 18 км мгла {туман} 5/1 600 м
[Cu med, cong Ac As Ci sp]
+33.8 +27.9 71 +54 +66 опасность
перегрева
1008.0 1006.8
06 14.06 ЮЗ 6 18 км мгла {туман} 4/1 600 м
[Cu med, cong Ac As Ci sp]
+34.8 +27.7 67 +55 +60 опасность
перегрева
1006.0 1004.8
09 14.06 ЮЗ 5 18 км мгла {туман} 5/1 600 м
[Cu med, cong Ac As Ci sp]
+32.0 +27.3 76 +50 +51 опасность
перегрева
1006.2 1005.0
12 14.06 ЮЗ 3 18 км мгла {туман} 5/1 600 м
[Cu med, cong Ac As Ci sp]
+29.4 +26.8 86 +46 +46 опасность
перегрева
1008.5 1007.3 +35.8
15 14.06 штиль 0 18 км мгла {туман} 4/3 600 м
[Cu med, cong Ac As]
+28.8 +26.6 88 +45 +45 опасность
перегрева
1009.2 1008.0
18 14.06 штиль 0 18 км мгла {туман} 6/3 600 м
[Cu med, cong Ac As]
+28.5 +26.3 88 +43 +43 опасность
перегрева
1008.3 1007.1
21 14.06 штиль 0 18 км мгла {туман} 8/3 600 м
[Cu med, cong Ac As]
+26.8 +27.7 100 +42 +42 опасность
перегрева
1007.1 1006.9
00 15.06 ЮЗ 2 18 км мгла {туман} 6/3 600 м
[Cu med, cong Ac As Ci sp]
+30.1 +27.8 88 +50 +53 опасность
перегрева
1007.4 1006.2 +24.9
03 15.06 ЮЗ 2 18 км мгла {туман} 8/4 600 м
[Cu med, cong Ac As Ci sp]
+33.8 +27.3 69 +53 +61 опасность
перегрева
1008.3 1007.1
06 15.06 ЮЗ 2 18 км мгла {туман} 8/4 600 м
[Cu med, cong Ac As]
+33.7 +29.4 78 +58 +64 опасность
перегрева
1006.4 1005.2
09 15.06 ЮЗ 3 18 км мгла {туман} 9/4 600 м
[Cu med, cong Ac As]
+31.9 +27.6 78 +51 +52 опасность
перегрева
1006.4 1005.2
12 15.06 штиль 0 18 км мгла {дождь, туман} 6/3 600 м
[Cu med, cong Ac As]
+27.9 +27.1 95 +44 +44 опасность
перегрева
1007.8 1006.6 +34.8 3
15 15.06 штиль 0 18 км мгла {туман} 5/3 600 м
[Frnb As op]
+27.5 +25.4 88 +40 +40 очень
душно
1008.8 1007.6
18 15.06 штиль 0 18 км мгла {туман} 5/3 600 м
[Cu med, cong Ac As]
+27.2 +25.2 89 +39 +39 очень
душно
1007.8 1006.6
21 15.06 штиль 0 18 км мгла {туман} 6/4 600 м
[Cu med, cong Ac As]
+26.7 +25.1 91 +38 +38 очень
душно
1007.2 1006.0
00 16.06 Ю 1 18 км мгла {туман} 5/1 600 м
[Cu med, cong Ci sp]
+29.5 +26.3 83 +45 +52 опасность
перегрева
1008.2 1007.0 +24.9 3
03 16.06 ЮЗ 2 18 км мгла {туман} 6/3 600 м
[Cu med, cong Ac As Ci sp]
+33.6 +27.2 69 +52 +63 опасность
перегрева
1008.3 1007.1
06 16.06 СЗ 1 16 км гроза, ливневой дождь 9/3 540 м
[Cb cap Ac As]
+28.0 +26.6 92 +43 +49 опасность
перегрева
1007.8 1006.6 0.2
09 16.06 В 2 18 км мгла {туман} 9/4 600 м
[Cu med, cong Ac As]
+30.4 +27.5 85 +49 +50 опасность
перегрева
1007.8 1006.6 0.0

 

Местоположение метеостанции Амбулонг (Филиппины): широта 14.08 долгота 121.05 высота над уровнем моря 11 м.

В архиве по умолчанию представлена погода на Амбулонге за последнюю неделю. Архивные данные за месяц целиком и за предыдущие месяцы, начиная с января 2011 года, Вы можете получить, выбрав интересующий диапазон дат из раскрывающегося списка и нажав кнопку "Ввод!".


*Определитесь, кто Вы:
робот инопланетянин человек

Внимание! Время в таблицах - всемирное. Для получения местного времени необходимо прибавить поправку, которая равна 8 ч.

Смотрите также архив погоды в соседних городах и на ближайших метеорологических станциях:

Погода в Сангли Пойнт (Филиппины) (49 км)
Погода в Аэропорту Ninoy Aquino (Филиппины) (49 км)
Погода в Маниле (Филиппины) (56 км)
Погода в Танае (Филиппины) (57 км)
Погода в Тайябасе (Филиппины) (57 км)
Погода в Научном саду (Филиппины) (61 км)
Погода в Калапане (Филиппины) (75 км)
Погода в Инфанте (Филиппины) (99 км)
Погода на Алабате (Филиппины) (104 км)
Погода в Куби Пойнт (Филиппины) (117 км)

Пояснения к столбцам:

Ветер - указаны скорость ветра в м/с - средняя за 10 мин, порывы в срок и между сроками (в фигурных скобках) и направление, откуда дует ветер: С - северный, СВ - северо-восточный, В - восточный, ЮВ - юго-восточный, Ю - южный, ЮЗ - юго-западный, З - западный, СЗ - северо-западный.
Видимость - горизонтальная дальность видимости в метрах или километрах. При видимости от 1 до 10 км при отсутствии осадков обычно наблюдается дымка, при ухудшении видимости до 1 км и менее - туман. В сухую погоду видимость может ухудшаться дымом, пылью или мглою.
Явления - указаны атмосферные явления, наблюдавшиеся в срок или в последний час перед сроком; фигурными скобками обозначены явления, наблюдавшиеся между сроками (за 1-3 часа до срока); квадратными скобками обозначены град или гололедные отложения с указанием их диаметра в мм.
Облачность - указаны через наклонную черту общая и нижняя облачность в баллах и высота нижней границы облаков в метрах; квадратными скобками обозначены формы облаков: Ci - перистые, Cs - перисто-слоистые, Cc - перисто-кучевые, Ac - высококучевые, As - высокослоистые, Sc - слоисто-кучевые, Ns - слоисто-дождевые, Cu - кучевые, Cb - кучево-дождевые. Подробнее классификацию облаков см. в Атласе облаков (PDF).
T - Температура воздуха - температура, измеренная на высоте 2 м над землей.
Td - Температура точки росы - температура, при понижении до которой содержащийся в воздухе водяной пар достигнет насыщения.
f - Относительная влажность воздуха - влажноcть воздуха, измеренная на высоте 2 м над землей.
Te - Эффективная температура - температура, которую ощущает одетый по сезону человек в тени. Характеристика душности погоды. При расчете учитывается влияние влажности воздуха и скорости ветра на теплоощущения человека.
Tes - Эффективная температура на солнце - температура, которую ощущает человек, с поправкой на солнечный нагрев. Характеристика знойности погоды. Зависит от высоты солнца над горизонтом, облачности и скорости ветра. Ночью, в пасмурную погоду, а также при ветре 12 м/с и более поправка равна нулю.
P - Атмосферное давление - приведенное к уровню моря атмосферное давление.
Po - Атмосферное давление - измеренное на уровне метеостанции атмосферное давление.
Tmin - Минимальная температура - минимум температуры воздуха на высоте 2 м над землей.
Tmax - Максимальная температура - максимум температуры воздуха на высоте 2 м над землей.
R - Количество осадков - Количество выпавших осадков за период времени, мм. При наведении курсора мыши на число - период времени, за который выпало указанное количество осадков.
R24 - Количество осадков - Количество выпавших осадков за 24 часа, мм.
S - Снежный покров - Высота снежного покрова, см. При наведении курсора мыши на число - состояние снежного покрова и степень покрытия местности в баллах.